Location: Unspecified
(0.0000°N, 0.0000°E)
Time: 03:29:17
(UTC+00:00)

deb Centaur AC-2 - Pass Details

Date: 06 August 2024
Orbit: 582 x 982 km, 29.9° (Epoch: 09 September)

Event Time Altitude Azimuth Distance (km) Brightness Sun altitude
Exits shadow 03:56:26 31° 156° (SSE) 1,590 ? -30.9°
Maximum altitude 03:56:42 31° 151° (SSE) 1,583 ? -30.8°
Drops below altitude 10° 04:02:04 10° 91° (E) 2,533 ? -29.5°
Sets 04:04:48 0° 80° (E) 3,403 ? -28.9°
